Location: Washington
(38.8950°N, 77.0367°W)
Time: 17:38:42
(UTC-05:00)

N. Korean satellite - Visible Passes

Search period start: 27 February 2015 00:00
Search period end: 09 March 2015 01:00
Orbit: 479 x 543 km, 97.3° (Epoch: 26 February)

Date Brightness Start Highest point End Pass type
(mag) Time Alt. Az. Time Alt. Az. Time Alt. Az.
27 Feb 7.2 19:40:07 10° S 19:43:55 62° W 19:47:48 10° NNW visible
28 Feb 6.6 19:23:45 10° SSE 19:27:36 80° E 19:31:32 10° N visible
01 Mar 6.9 19:07:35 10° SSE 19:11:18 48° ENE 19:15:07 10° N visible
01 Mar 10.0 20:44:33 10° WSW 20:45:40 11° W 20:46:33 10° WNW visible
02 Mar 7.6 18:51:37 10° SE 18:55:02 31° ENE 18:58:31 10° N visible
02 Mar 9.6 20:26:27 10° SW 20:29:07 17° W 20:31:41 10° NW visible
03 Mar 8.1 18:35:55 10° ESE 18:38:46 20° ENE 18:41:43 10° NNE visible
03 Mar 8.9 20:09:17 10° SSW 20:12:37 26° W 20:15:57 10° NW visible
04 Mar 8.0 19:52:28 10° S 19:56:10 42° W 19:59:55 10° NNW visible
05 Mar 7.0 19:35:53 10° S 19:39:45 70° W 19:43:40 10° NNW visible
06 Mar 6.7 19:19:30 10° SSE 19:23:22 71° ENE 19:27:17 10° N visible
07 Mar 7.1 19:03:18 10° SE 19:07:00 43° ENE 19:10:45 10° N visible
07 Mar 9.9 20:39:33 10° WSW 20:41:16 12° W 20:42:49 10° WNW visible
08 Mar 7.7 19:47:19 10° SE 19:50:39 28° ENE 19:54:02 10° NNE visible
08 Mar 9.4 21:21:47 10° SW 21:24:40 19° W 21:27:28 10° NW visible
